RH
67 70 78 97 96 95 94 93 94 94 95 96 96 96 95 94 92 90 91 90 92 93 92 92 93 93 94 95 94 89 53 58
67 66 68 70 73 96 94 94 94 95 96 96 97 97 96 95 94 93 93 92 92 92 92 93 93 93 93 94 93 90 48 45
65 62 61 64 63 72 93 95 94 96 92 97 92 62 70 76 76 94 94 94 92 92 93 94 95 94 92 92 94 43 43 42
56 60 59 60 51 61 67 64 61 63 66 71 64 59 59 56 71 94 95 95 93 92 93 95 91 52 60 84 48 44 45 42
54 60 60 59 53 54 59 54 56 59 64 65 64 60 61 58 58 64 63 86 60 70 73 58 54 52 48 49 46 51 39 39
48 54 60 63 48 51 60 57 72 68 59 67 64 61 66 64 58 57 59 56 56 55 53 55 63 61 54 53 52 46 40 38
48 52 59 59 62 51 54 55 63 72 75 78 74 58 64 61 61 58 58 58 56 54 53 60 60 57 54 53 52 51 48 41
46 50 62 63 62 59 57 58 55 68 72 76 83 61 64 59 63 69 60 60 56 55 53 59 55 54 55 54 51 48 47 47
37 55 61 67 67 59 57 52 54 60 67 78 84 72 72 78 74 67 76 63 65 61 60 61 58 58 56 54 51 54 49 49
20 41 56 63 62 57 50 50 58 55 65 63 79 78 68 80 77 73 64 82 79 79 78 74 58 60 61 54 51 49 53 51
17 37 54 60 59 56 56 58 70 57 59 53 69 77 75 73 76 77 77 84 90 84 83 72 68 62 60 61 60 56 54 48
18 28 53 59 54 56 52 54 63 59 65 63 62 71 76 80 75 79 86 79 87 87 87 86 72 64 58 59 63 60 58 57
23 28 48 54 54 53 52 55 55 56 52 58 62 74 77 80 74 85 86 80 82 86 90 89 88 72 81 85 85 79 74 68
45 37 37 50 50 46 45 47 48 49 51 53 56 61 76 80 78 80 81 71 81 85 87 92 89 85 89 85 84 66 79 78
52 48 46 53 60 50 47 48 51 53 56 53 54 58 63 80 70 70 71 69 76 85 86 91 95 93 79 61 74 65 49 57
60 54 56 75 80 67 63 58 62 58 59 54 56 63 61 62 67 64 66 76 72 77 78 82 83 92 91 64 54 50 51 53
70 69 66 67 85 95 91 69 56 54 65 69 80 77 70 60 64 68 77 78 79 85 87 90 73 76 71 64 73 67 63 57
73 73 73 76 76 87 96 89 70 70 76 78 81 90 90 85 74 82 82 87 89 89 87 86 81 74 62 59 62 72 79 80
84 78 79 78 81 82 85 87 88 89 91 91 87 90 88 90 89 90 90 88 89 86 86 86 82 78 74 64 60 57 56 65
83 82 82 79 81 80 81 82 85 84 87 85 90 93 89 86 90 92 92 90 86 83 81 83 83 80 77 68 62 63 58 60
Wind_Speed
13 15 14 10 12 13 13 11 11 11 11 12 12 12 12 11 10 10 10 10 11 9 10 10 9 9 10 8 7 6 4 3
13 14 14 14 13 8 11 11 10 10 10 10 10 10 10 11 9 9 10 11 10 10 9 10 9 8 8 8 6 4 7 5
12 13 14 13 13 11 8 9 9 9 9 8 10 11 13 14 12 12 10 9 10 10 9 9 8 7 7 8 7 6 5 4
13 14 14 13 10 12 13 12 12 12 13 14 11 12 12 12 11 10 8 9 7 9 9 8 9 9 8 6 7 3 5 3
13 13 14 15 13 10 8 8 9 10 14 13 13 9 10 9 8 8 10 9 8 9 9 9 10 5 6 7 6 6 4 4
15 16 14 15 10 11 11 10 8 7 11 15 11 8 9 10 8 11 10 9 10 10 8 9 8 9 8 7 6 6 4 3
16 17 16 14 14 11 11 11 10 11 10 10 10 11 10 10 10 9 10 9 9 10 9 8 10 9 8 8 8 7 6 4
16 19 17 16 15 15 11 11 11 11 11 12 13 11 10 11 10 8 10 9 10 10 10 9 9 9 9 8 7 6 7 6
15 18 20 20 18 16 12 12 11 12 11 13 13 14 11 11 9 11 9 10 12 10 9 9 9 8 10 8 7 7 7 7
17 16 20 22 19 15 12 12 11 11 11 12 13 16 15 11 10 9 11 6 7 7 8 8 9 9 9 9 8 8 8 8
19 18 21 22 20 15 14 13 10 11 11 11 14 14 16 12 11 10 9 7 6 9 9 9 9 9 9 8 8 8 8 8
20 16 20 21 16 15 13 12 12 11 11 11 13 12 15 11 11 11 9 9 8 9 10 8 9 9 8 8 8 7 8 8
17 19 19 16 16 16 14 14 14 13 13 16 16 13 15 14 11 10 11 12 12 12 8 11 8 8 4 4 5 7 10 8
16 19 20 18 16 15 14 14 13 13 12 14 16 17 16 13 14 11 14 11 13 12 11 5 6 8 5 4 5 8 9 11
14 15 15 17 17 13 14 12 11 11 12 13 15 17 17 17 18 15 14 13 11 11 12 12 7 6 13 7 5 8 5 7
13 12 12 8 11 13 19 16 14 11 11 11 12 16 18 19 18 18 16 11 13 12 11 11 9 8 6 12 15 9 5 5
11 13 8 6 4 3 8 13 11 10 8 10 9 11 17 17 18 17 14 11 13 11 12 12 12 10 10 10 12 10 12 11
11 11 11 10 9 11 15 11 10 7 5 6 6 6 7 12 14 12 13 12 14 13 14 15 13 12 12 12 10 10 10 9
11 12 13 12 12 13 13 7 7 7 4 4 3 6 7 10 11 11 12 14 14 14 17 18 18 14 16 12 11 12 10 10
13 14 13 15 13 13 11 12 6 5 7 4 4 5 5 6 8 11 13 14 16 16 12 12 15 15 17 16 12 11 12 11
Wind_Direction
174 180 169 154 159 161 161 162 160 161 159 156 153 153 156 161 168 171 161 154 152 158 154 154 154 150 150 140 151 211 251 175
187 185 181 179 181 165 162 161 160 162 164 157 152 152 158 161 164 174 163 161 160 156 162 154 157 155 150 140 141 198 220 178
198 190 186 186 187 179 169 164 160 158 165 152 156 183 180 169 189 154 172 167 161 161 161 159 150 144 146 151 180 207 187 185
204 198 190 191 195 186 198 188 192 193 190 181 192 194 188 185 171 161 171 166 168 161 162 148 184 177 171 171 219 170 230 153
218 206 199 195 189 186 207 193 195 197 196 189 200 196 188 196 179 186 188 178 185 183 167 196 202 203 198 200 196 199 226 228
212 216 206 203 199 192 191 194 195 201 204 194 198 200 190 198 198 191 196 182 196 193 191 203 207 206 213 207 209 218 202 239
222 208 210 204 209 198 197 201 193 196 190 195 198 202 191 196 204 197 191 191 195 200 203 195 206 203 213 217 212 215 231 245
215 214 201 210 210 207 197 194 194 205 202 195 200 207 196 204 204 192 208 199 200 201 203 206 208 209 210 219 226 219 218 227
231 214 200 202 206 207 197 196 203 198 205 208 196 206 192 194 207 202 200 205 205 207 202 208 212 213 223 210 219 226 237 230
249 205 210 204 199 206 202 198 199 199 208 199 211 207 200 193 198 207 205 177 199 197 189 197 214 214 220 222 219 228 226 235
250 215 213 209 202 199 203 200 197 205 209 204 200 213 211 200 199 202 208 174 191 193 197 202 217 219 225 229 233 238 234 241
263 235 210 209 204 196 195 199 196 202 203 206 207 209 214 206 203 200 188 197 187 195 196 205 212 213 231 231 235 247 251 243
269 241 211 207 202 194 197 203 203 203 205 204 201 201 211 207 210 196 189 202 198 190 187 197 208 214 201 235 268 252 247 251
293 264 221 207 204 200 198 203 204 209 202 205 210 201 200 209 212 208 202 203 205 196 190 175 201 192 184 204 232 222 229 235
309 287 263 210 212 201 193 203 206 204 205 213 210 210 205 204 212 216 208 214 200 193 192 185 184 194 218 219 210 240 224 199
319 297 261 266 239 206 194 184 194 204 210 211 209 213 212 212 217 217 216 208 206 200 197 198 194 188 213 235 248 277 239 213
343 334 343 310 216 8 194 194 202 194 202 217 205 211 222 224 217 218 213 200 204 186 187 203 206 214 206 210 231 236 248 263
355 5 7 13 30 48 67 297 221 209 211 191 194 199 207 226 227 212 205 198 193 188 191 198 210 220 232 228 221 217 224 230
358 10 19 26 46 47 57 68 53 58 52 25 233 197 208 216 224 212 209 205 201 196 206 202 195 210 218 222 227 233 225 219
10 25 17 21 34 48 52 48 41 45 20 7 318 316 232 212 225 222 217 211 210 216 221 223 202 206 211 214 222 226 230 229